Wind_Speed
13 13 13 12 13 14 14 14 14 14 14 14 14 13 12 12 11 12 12 11 11 11 11 11 11 11 11 10 10 11 12 12 13 13 14 15 15 15 14 14 15 15 15
15 15 15 15 16 16 15 14 14 13 13 13 13 12 11 11 11 11 11 11 11 11 11 12 12 11 11 11 11 11 11 12 13 13 13 14 14 15 15 15 15 16 16
15 16 16 16 17 17 15 15 14 14 13 13 12 12 11 11 11 10 10 10 10 10 11 11 11 11 11 11 11 11 12 13 13 13 13 13 13 14 14 15 16 16 16
16 16 16 16 17 16 15 15 15 14 13 13 12 12 12 11 11 11 10 10 10 10 10 10 11 11 11 10 11 12 13 13 13 13 13 14 14 15 15 15 16 16 17
17 17 17 17 16 15 16 15 15 15 14 13 12 12 12 12 11 11 10 10 10 10 10 10 10 11 11 11 11 12 12 13 13 13 13 13 14 14 14 15 16 16 17
18 17 16 16 15 16 16 16 16 15 14 14 13 12 12 12 11 11 11 10 10 10 10 9 9 10 10 10 11 11 11 12 13 13 13 13 14 14 14 14 15 15 16
17 17 17 16 16 16 17 16 15 15 14 13 13 12 13 12 11 11 11 11 10 9 9 9 9 9 9 9 10 10 10 11 12 12 12 13 13 14 14 15 16 16 16
15 16 17 17 17 17 16 16 15 15 14 13 13 14 13 12 11 11 11 10 10 9 10 9 8 9 9 9 9 9 9 10 11 11 12 12 13 14 14 15 15 16 16
15 16 16 17 17 16 15 14 14 14 14 14 13 13 13 12 11 10 9 9 9 9 9 8 8 8 8 8 8 9 10 10 11 11 11 12 12 13 13 14 14 14 15
16 16 17 17 17 16 15 14 14 14 14 14 13 13 12 13 11 10 9 9 8 8 8 8 8 8 8 8 9 10 10 11 11 11 12 12 12 12 12 12 13 13 14
17 17 17 17 16 15 15 15 14 14 13 13 12 12 12 11 10 10 9 9 8 8 8 8 8 9 9 9 9 9 10 10 10 11 12 12 12 12 12 12 13 13 14
16 17 17 16 15 16 15 15 14 14 14 13 13 12 10 10 10 10 10 10 9 9 9 8 9 10 10 9 9 9 9 8 9 10 11 11 11 12 12 12 13 13 14
17 17 17 16 15 15 15 14 14 13 14 14 14 12 12 12 11 11 11 11 10 9 9 9 10 10 10 10 10 10 9 9 9 10 10 10 10 11 12 12 12 12 13
17 17 17 17 16 16 15 15 14 14 14 14 14 13 13 12 12 13 12 11 11 10 10 11 11 10 10 10 10 10 10 10 9 9 9 9 9 10 11 12 12 12 12
18 17 18 18 17 17 16 15 15 15 14 14 14 14 13 13 13 13 13 13 13 13 12 12 12 12 12 12 11 11 11 11 11 10 10 10 10 11 11 12 12 12 13
19 19 19 19 19 18 17 16 16 15 15 15 14 14 14 14 13 13 13 14 14 15 14 13 13 14 13 13 13 13 13 12 12 12 12 12 12 13 13 13 13 13 13
19 19 19 18 19 18 17 16 16 16 15 15 15 15 16 16 15 15 15 15 16 16 16 15 15 15 16 15 15 15 14 14 13 14 14 13 13 14 14 14 14 14 14
21 21 20 19 19 19 19 18 17 17 16 16 16 16 16 16 16 17 17 17 17 17 17 17 16 17 17 16 16 16 16 15 15 15 15 15 15 16 16 15 15 16 16
21 21 21 21 20 20 19 19 19 18 18 17 17 17 17 17 18 18 18 18 18 18 17 17 16 17 17 16 17 17 17 17 16 16 16 17 17 17 17 17 17 17 17
22 22 22 22 22 20 20 20 20 19 18 18 18 17 17 17 18 19 18 18 18 17 17 17 17 17 18 17 18 18 19 19 18 18 18 18 19 19 18 18 18 18 19
23 23 23 23 21 21 21 21 21 20 20 19 19 18 18 18 18 19 19 18 18 18 18 18 18 18 18 18 18 19 20 20 20 19 19 19 20 20 20 20 20 20 20
23 23 23 22 22 22 22 22 22 22 21 21 20 20 19 19 19 19 19 19 19 19 19 19 19 19 19 19 20 20 20 20 20 20 20 21 21 21 20 20 21 21 21
23 23 23 23 23 23 23 23 23 22 22 22 22 21 19 19 19 19 18 19 19 19 20 20 20 20 20 20 20 20 20 19 19 20 21 21 22 21 21 21 21 21 22
23 24 24 24 24 24 23 23 23 23 22 22 22 22 20 19 19 19 19 19 19 20 21 21 21 21 21 21 20 20 19 19 20 20 21 22 22 22 21 21 21 21 21
24 25 25 25 24 24 23 23 22 22 23 22 21 21 21 20 20 20 20 20 20 20 21 21 22 22 22 21 20 20 20 20 20 20 21 21 21 21 21 21 21 21 21
24 24 24 24 23 23 22 22 23 22 22 22 21 21 21 21 21 20 20 21 21 21 21 21 21 20 21 20 20 20 20 20 20 21 21 21 21 21 21 21 21 21 21
Wind_Direction
280 284 288 295 300 304 303 305 307 306 303 303 303 301 295 293 291 286 281 279 279 279 277 276 277 274 270 269 269 263 261 262 262 261 258 253 253 254 254 254 253 253 253
279 280 282 292 299 303 303 304 304 305 306 303 300 297 292 293 290 284 280 278 276 275 275 275 275 273 269 269 270 266 264 266 264 262 258 256 253 252 253 253 253 253 253
273 278 280 286 296 298 298 300 301 304 301 300 297 294 289 288 289 284 280 280 279 278 276 274 273 271 269 268 268 267 266 267 265 262 258 255 253 253 254 253 254 255 254
270 273 278 284 292 294 295 299 298 299 296 294 294 291 288 287 283 278 278 279 279 280 278 275 273 271 271 271 271 270 267 268 265 263 259 257 256 256 257 257 259 258 256
267 271 275 282 288 290 292 294 294 294 292 290 289 287 286 285 280 274 272 275 275 276 278 278 274 273 272 272 273 272 267 265 262 261 261 259 258 258 259 261 261 260 258
267 269 273 276 281 285 289 289 289 290 290 289 287 287 288 289 277 268 270 270 271 273 275 274 275 277 276 274 275 273 269 264 260 258 259 260 259 260 260 261 261 261 260
268 269 273 274 275 281 286 286 285 286 286 286 287 287 288 288 282 274 271 269 268 269 271 269 272 277 276 278 277 271 269 264 261 261 262 262 260 261 262 262 264 263 262
268 273 275 274 274 279 284 284 283 285 284 285 286 284 286 283 278 281 272 268 266 268 269 266 266 273 276 279 278 272 269 267 268 266 265 264 261 260 262 264 264 262 262
269 274 276 271 272 277 281 281 283 284 284 286 284 282 280 277 275 275 267 266 266 268 268 265 269 270 278 281 278 274 271 267 269 268 268 266 264 262 264 264 263 263 262
272 276 279 273 272 275 278 281 280 281 280 285 282 279 276 272 268 265 262 257 263 270 269 267 268 272 278 281 281 279 274 270 269 267 269 267 262 259 263 266 267 266 267
273 275 278 273 271 274 277 282 282 281 282 286 284 281 277 264 255 253 254 254 262 267 268 266 267 273 275 279 283 285 284 275 269 266 268 267 263 258 262 267 268 270 270
271 272 275 274 272 273 277 278 279 280 285 286 281 276 273 263 258 252 252 255 261 264 267 268 270 273 274 276 282 285 286 281 278 273 269 265 264 266 267 271 271 271 269
270 269 271 270 272 275 277 277 277 278 280 280 275 270 267 265 261 259 257 257 258 264 269 271 274 278 278 278 279 278 280 282 282 283 278 275 269 269 273 274 274 272 271
269 268 268 270 274 276 277 276 275 274 274 272 271 266 264 266 262 262 260 258 261 266 268 273 276 280 280 280 276 273 272 275 282 284 283 282 280 277 278 280 277 275 274
267 267 268 269 273 275 276 278 275 271 270 266 265 264 264 266 266 263 259 257 261 263 267 272 273 278 279 276 273 273 273 273 276 278 280 282 282 282 283 285 282 280 278
265 266 268 269 270 270 273 275 273 271 270 267 264 264 266 266 265 260 259 255 258 264 266 269 272 275 275 274 272 272 272 273 273 274 277 279 280 281 283 285 283 282 279
263 265 268 270 271 270 270 272 271 270 269 267 265 263 264 265 262 261 260 260 261 263 263 267 270 274 272 272 272 269 267 270 272 273 273 274 278 281 281 280 281 281 281
262 264 266 271 274 272 269 269 269 269 270 268 265 263 264 262 261 261 262 262 264 263 262 264 269 272 272 271 269 267 266 268 270 270 272 273 276 280 281 280 280 281 282
261 262 265 269 271 270 268 267 267 268 268 267 267 264 262 261 263 264 264 264 265 266 265 265 268 270 271 270 267 266 267 268 268 269 271 273 276 277 278 279 280 280 281
262 263 264 266 266 265 265 266 267 268 268 268 270 270 267 264 264 265 266 266 265 265 265 264 266 268 270 271 268 267 268 269 269 269 271 274 275 277 278 280 281 281 281
263 263 264 265 263 264 265 267 267 266 266 268 270 269 269 268 266 266 264 263 263 263 264 264 265 267 269 271 272 271 270 270 269 271 273 275 277 277 279 279 279 281 282
263 262 261 262 262 262 263 265 266 265 264 265 265 266 268 269 268 266 262 260 261 261 263 264 265 267 268 270 272 273 272 272 271 272 274 276 277 278 279 279 279 280 281
262 261 261 262 261 261 261 262 265 265 263 262 263 263 264 266 266 265 263 259 259 261 262 263 266 267 268 270 272 273 274 273 272 271 272 275 276 278 280 280 281 282 282
258 259 261 260 260 260 259 261 263 263 262 262 261 261 261 263 264 265 265 262 262 264 264 264 265 267 269 271 272 273 274 276 276 275 274 275 276 277 279 280 282 283 283
256 257 258 257 257 259 260 261 261 260 259 260 260 260 261 263 265 268 268 265 265 267 266 267 268 269 271 272 273 274 275 277 278 279 278 277 277 277 278 280 282 283 284
257 257 258 257 255 257 260 261 260 261 261 261 261 261 264 265 265 268 270 270 269 270 269 269 270 271 272 273 276 276 276 278 280 280 280 277 276 277 279 281 283 283 283
Height
5861 5861 5860 5859 5858 5858 5856 5855 5853 5852 5851 5849 5847 5846 5845 5845 5844 5844 5843 5843 5843 5843 5843 5843 5843 5843 5843 5844 5844 5844 5844 5844 5844 5845 5845 5846 5847 5848 5849 5849 5850 5851 5851
5858 5857 5857 5856 5856 5855 5853 5852 5851 5849 5848 5846 5844 5843 5842 5842 5842 5841 5841 5840 5841 5841 5841 5841 5841 5840 5840 5840 5841 5841 5841 5841 5841 5841 5842 5842 5844 5844 5845 5846 5846 5847 5848
5855 5854 5853 5853 5853 5852 5850 5849 5848 5846 5845 5843 5842 5841 5840 5840 5839 5839 5838 5838 5838 5838 5838 5838 5838 5838 5837 5837 5837 5837 5837 5838 5838 5838 5838 5839 5840 5840 5841 5842 5843 5843 5844
5851 5850 5850 5849 5849 5848 5847 5846 5844 5843 5842 5840 5839 5839 5838 5837 5836 5836 5836 5835 5835 5835 5835 5835 5835 5835 5834 5834 5834 5834 5834 5834 5834 5834 5835 5836 5836 5837 5838 5839 5839 5839 5840
5846 5846 5846 5846 5845 5844 5843 5842 5841 5840 5838 5837 5836 5836 5835 5834 5834 5833 5833 5833 5833 5833 5832 5832 5832 5831 5831 5831 5831 5830 5830 5831 5831 5831 5831 5832 5832 5833 5834 5835 5835 5836 5836
5842 5842 5842 5841 5841 5841 5839 5838 5837 5836 5835 5834 5833 5832 5832 5831 5831 5831 5831 5831 5830 5830 5830 5829 5829 5828 5828 5827 5827 5827 5827 5827 5827 5827 5828 5829 5829 5830 5830 5831 5831 5831 5832
5837 5837 5838 5838 5837 5837 5836 5834 5834 5833 5832 5831 5830 5830 5829 5828 5828 5828 5828 5828 5828 5828 5827 5827 5826 5825 5825 5824 5824 5824 5823 5824 5824 5824 5825 5825 5826 5826 5827 5827 5827 5827 5828
5833 5833 5833 5833 5833 5832 5832 5831 5830 5829 5829 5828 5827 5826 5826 5826 5825 5825 5825 5825 5825 5825 5825 5824 5824 5823 5822 5822 5821 5821 5821 5821 5821 5821 5821 5821 5822 5822 5822 5823 5823 5824 5824
5829 5829 5829 5829 5828 5828 5828 5827 5826 5826 5825 5825 5824 5823 5823 5822 5822 5822 5822 5823 5823 5822 5822 5822 5821 5821 5820 5819 5819 5818 5818 5818 5818 5818 5818 5818 5819 5819 5819 5819 5819 5820 5820
5825 5825 5825 5824 5824 5824 5824 5823 5822 5822 5821 5820 5820 5819 5819 5818 5818 5819 5819 5820 5820 5820 5820 5819 5819 5819 5818 5817 5817 5816 5816 5816 5816 5816 5816 5816 5815 5815 5815 5815 5815 5815 5816
5821 5821 5821 5820 5820 5820 5820 5819 5818 5818 5817 5817 5816 5816 5815 5815 5815 5816 5817 5817 5817 5817 5817 5817 5817 5817 5816 5815 5815 5814 5814 5814 5814 5813 5813 5813 5813 5812 5812 5812 5812 5812 5812
5817 5817 5817 5816 5816 5816 5816 5815 5815 5814 5814 5813 5813 5813 5813 5813 5813 5813 5814 5814 5815 5815 5815 5815 5814 5814 5814 5813 5813 5812 5812 5812 5811 5811 5810 5810 5809 5810 5809 5808 5808 5808 5808
5813 5813 5813 5812 5812 5812 5812 5812 5811 5811 5810 5810 5810 5810 5810 5810 5810 5810 5811 5811 5812 5812 5812 5812 5812 5812 5811 5811 5810 5810 5810 5809 5809 5808 5808 5807 5807 5806 5806 5805 5805 5805 5805
5808 5808 5808 5809 5808 5808 5808 5808 5807 5807 5807 5807 5807 5807 5807 5807 5807 5807 5807 5808 5809 5809 5809 5810 5810 5809 5809 5808 5808 5808 5807 5807 5806 5806 5805 5805 5804 5804 5803 5802 5802 5801 5801
5803 5804 5804 5804 5804 5804 5804 5804 5803 5803 5803 5803 5803 5803 5803 5803 5804 5804 5804 5804 5805 5806 5806 5806 5806 5806 5806 5805 5805 5805 5805 5804 5804 5803 5802 5802 5801 5801 5800 5799 5799 5798 5798
5798 5798 5798 5799 5799 5799 5799 5799 5798 5798 5798 5798 5799 5799 5799 5799 5800 5800 5800 5801 5801 5802 5802 5802 5803 5803 5802 5802 5802 5802 5801 5801 5801 5800 5800 5799 5798 5798 5797 5796 5795 5795 5795
5793 5793 5793 5794 5794 5794 5794 5794 5794 5794 5794 5794 5794 5795 5795 5795 5796 5796 5796 5796 5797 5797 5798 5798 5798 5798 5798 5798 5798 5798 5797 5797 5797 5796 5796 5796 5795 5795 5794 5793 5792 5792 5791
5787 5788 5788 5788 5789 5789 5789 5789 5789 5789 5789 5789 5789 5790 5790 5790 5791 5791 5791 5792 5792 5793 5793 5793 5794 5794 5794 5793 5793 5793 5793 5793 5793 5792 5792 5792 5791 5791 5790 5790 5789 5788 5788
5781 5782 5783 5783 5783 5783 5783 5784 5784 5784 5784 5784 5784 5785 5785 5785 5785 5786 5786 5787 5787 5788 5788 5789 5789 5789 5789 5789 5789 5789 5788 5788 5788 5788 5788 5788 5787 5787 5786 5786 5785 5784 5783
5775 5776 5776 5776 5777 5777 5777 5778 5778 5779 5779 5779 5779 5779 5779 5780 5780 5781 5781 5782 5782 5783 5784 5784 5784 5784 5784 5784 5784 5784 5783 5783 5783 5783 5783 5783 5783 5782 5781 5781 5780 5780 5779
5769 5769 5770 5770 5770 5771 5771 5771 5772 5773 5773 5773 5773 5774 5774 5774 5774 5775 5775 5776 5777 5778 5778 5779 5779 5779 5779 5778 5778 5778 5778 5778 5778 5778 5778 5778 5777 5776 5776 5775 5775 5774 5773
5762 5762 5763 5764 5764 5764 5765 5765 5766 5766 5767 5767 5768 5768 5768 5768 5769 5769 5770 5771 5771 5772 5772 5773 5773 5773 5773 5773 5772 5772 5772 5772 5772 5772 5772 5771 5771 5770 5770 5769 5769 5768 5767
5755 5755 5756 5757 5758 5758 5759 5759 5759 5760 5760 5761 5761 5762 5763 5763 5763 5764 5764 5765 5765 5766 5766 5767 5767 5767 5767 5767 5767 5766 5766 5766 5766 5766 5766 5765 5765 5764 5764 5763 5762 5762 5761
5747 5748 5749 5750 5751 5751 5752 5753 5753 5753 5754 5755 5755 5756 5757 5757 5758 5758 5759 5759 5760 5760 5761 5761 5761 5761 5761 5761 5761 5761 5760 5760 5759 5759 5759 5759 5758 5758 5758 5757 5756 5755 5754
5739 5740 5741 5742 5743 5744 5744 5745 5746 5747 5748 5749 5749 5750 5751 5752 5752 5753 5753 5754 5755 5755 5755 5755 5755 5755 5756 5755 5755 5754 5754 5754 5753 5753 5752 5752 5751 5751 5751 5750 5749 5749 5748
5731 5732 5733 5734 5735 5737 5737 5738 5739 5740 5741 5742 5743 5744 5744 5745 5746 5747 5747 5747 5748 5748 5749 5749 5749 5749 5749 5749 5748 5748 5748 5747 5747 5746 5745 5745 5744 5744 5744 5743 5742 5742 5741